Location: Newark
(0.5300°S, 127.4800°E)
Time: 23:40:34
(UTC+00:00)

Explorer 11/Cluster Stage 4 - All Passes

Search period start: 18 October 2019 00:00
Search period end: 28 October 2019 00:00
Orbit: 467 x 1259 km, 28.8° (Epoch: 17 October)

Date Brightness Start Highest point End Pass type
(mag) Time Alt. Az. Time Alt. Az. Time Alt. Az.
18 Oct - 07:44:52 10° NNW 07:50:44 33° NNE 07:57:31 10° E daylight
18 Oct - 09:32:35 10° WNW 09:39:57 78° SSW 09:48:14 10° SE visible
18 Oct - 11:23:10 10° W 11:29:45 27° SSW 11:36:29 10° SSE visible
18 Oct - 18:50:33 10° S 18:53:24 14° SSE 18:55:59 10° SE visible
18 Oct - 20:37:43 10° SW 20:42:26 61° SSE 20:46:19 10° ENE visible
18 Oct - 22:27:57 10° WNW 22:30:32 17° NNW 22:32:59 10° N daylight
19 Oct - 07:34:06 10° NW 07:39:58 38° NNE 07:46:56 10° E daylight
19 Oct - 09:22:02 10° WNW 09:29:09 66° SSW 09:37:18 10° SE visible
19 Oct - 11:12:58 10° WSW 11:19:03 24° SSW 11:25:22 10° SSE visible
19 Oct - 18:39:03 10° SSW 18:42:58 18° SSE 18:46:22 10° ESE visible
19 Oct - 20:26:55 10° WSW 20:31:55 82° SSE 20:35:58 10° ENE visible
19 Oct - 22:18:02 10° WNW 22:20:02 13° NNW 22:21:56 10° N daylight
20 Oct - 07:23:24 10° NW 07:29:13 44° NNE 07:36:16 10° ESE daylight
20 Oct - 09:11:34 10° WNW 09:18:23 56° SSW 09:26:19 10° SE daylight
20 Oct - 11:02:51 10° WSW 11:08:24 20° SSW 11:14:11 10° SSE visible
20 Oct - 18:27:44 10° SSW 18:32:30 23° SSE 18:36:31 10° ESE visible
20 Oct - 20:16:09 10° WSW 20:21:22 76° NNW 20:25:33 10° NE visible
20 Oct - 22:08:30 10° NW 22:09:31 11° NNW 22:10:30 10° NNW daylight
21 Oct - 05:28:03 10° NNE 05:29:46 11° NNE 05:31:36 10° NE daylight
21 Oct - 07:12:44 10° NW 07:18:29 51° NNE 07:25:33 10° ESE daylight
21 Oct - 09:01:10 10° W 09:07:39 47° SSW 09:15:16 10° SE daylight
21 Oct - 10:52:54 10° WSW 10:57:47 18° SSW 11:02:54 10° SSE visible
21 Oct - 16:30:29 10° S 16:32:00 11° SSE 16:33:27 10° SSE night (unlit)
21 Oct - 18:16:32 10° SW 18:22:00 30° SSE 18:26:31 10° E visible
21 Oct - 20:05:26 10° WSW 20:10:48 59° NNW 20:15:05 10° NE visible
22 Oct - 05:16:47 10° N 05:19:12 13° NNE 05:21:49 10° ENE daylight
22 Oct - 07:02:09 10° NW 07:07:45 61° NNE 07:14:47 10° ESE daylight
22 Oct - 08:50:51 10° W 08:56:58 39° SSW 09:04:10 10° SE daylight
22 Oct - 10:43:06 10° SW 10:47:13 15° SSW 10:51:32 10° SSE visible
22 Oct - 16:18:15 10° S 16:21:32 13° SSE 16:24:36 10° SE night (unlit)
22 Oct - 18:05:23 10° SW 18:11:28 37° SSE 18:16:23 10° E visible
22 Oct - 19:54:46 10° WSW 20:00:12 47° NNW 20:04:34 10° NE visible
23 Oct - 05:05:45 10° N 05:08:36 15° NNE 05:11:46 10° ENE daylight
23 Oct - 06:51:37 10° NW 06:57:04 74° NNE 07:03:58 10° ESE daylight
23 Oct - 08:40:37 10° W 08:46:20 33° SSW 08:53:02 10° SE daylight
23 Oct - 10:33:33 10° SW 10:36:41 13° SSW 10:39:57 10° S visible
23 Oct - 16:06:37 10° SSW 16:11:03 16° SSE 16:15:04 10° ESE night (unlit)
23 Oct - 17:54:18 10° SW 18:00:53 47° SSE 18:06:10 10° E visible
23 Oct - 19:44:08 10° W 19:49:35 39° NNW 19:53:59 10° NE visible
24 Oct - 04:54:51 10° N 04:58:00 18° NNE 05:01:36 10° ENE daylight
24 Oct - 06:41:09 10° WNW 06:46:23 89° NNE 06:53:06 10° ESE daylight
24 Oct - 08:30:30 10° W 08:35:44 27° SSW 08:41:49 10° SSE daylight
24 Oct - 10:24:34 10° SSW 10:26:12 11° SSW 10:27:52 10° S visible
24 Oct - 15:55:12 10° SSW 16:00:30 20° SSE 16:05:17 10° ESE night (unlit)
24 Oct - 17:43:15 10° SW 17:50:16 58° SSE 17:55:52 10° ENE visible
24 Oct - 19:33:32 10° W 19:38:56 32° NNW 19:43:22 10° NNE visible
25 Oct - 04:44:02 10° NNW 04:47:24 21° NNE 04:51:19 10° E daylight
25 Oct - 06:30:43 10° WNW 06:35:46 75° SSW 06:42:12 10° SE daylight
25 Oct - 08:20:31 10° WSW 08:25:10 22° SSW 08:30:33 10° SSE daylight
25 Oct - 15:43:53 10° SSW 15:49:55 24° SSE 15:55:20 10° ESE night (unlit)
25 Oct - 17:32:16 10° SW 17:39:36 71° SSE 17:45:29 10° ENE night (unlit)
25 Oct - 19:23:00 10° W 19:28:17 28° NNW 19:32:41 10° NNE visible
26 Oct - 04:33:17 10° NNW 04:36:49 25° NNE 04:40:57 10° E daylight
26 Oct - 06:20:23 10° WNW 06:25:10 59° SSW 06:31:16 10° SE daylight
26 Oct - 08:10:40 10° WSW 08:14:39 18° SSW 08:19:09 10° SSE daylight
26 Oct - 13:46:30 10° S 13:48:41 11° SSE 13:50:49 10° SSE visible
26 Oct - 15:32:39 10° SSW 15:39:18 28° SSE 15:45:14 10° E night (unlit)
26 Oct - 17:21:19 10° WSW 17:28:54 85° SSE 17:35:02 10° ENE night (unlit)
26 Oct - 19:12:31 10° W 19:17:37 24° NNW 19:21:56 10° NNE visible
27 Oct - 04:22:36 10° NNW 04:26:14 30° NNE 04:30:31 10° E daylight
27 Oct - 06:10:06 10° W 06:14:37 46° SSW 06:20:17 10° SE daylight
27 Oct - 08:01:04 10° SW 08:04:10 14° SSW 08:07:36 10° SSE daylight
27 Oct - 13:34:45 10° S 13:38:10 13° SSE 13:41:30 10° SE visible
27 Oct - 15:21:29 10° SW 15:28:38 33° SSE 15:35:02 10° E night (unlit)
27 Oct - 17:10:24 10° WSW 17:18:10 82° NNW 17:24:31 10° NE night (unlit)
27 Oct - 19:02:07 10° W 19:06:57 21° NNW 19:11:08 10° NNE visible
